Theta_e
326 333 341 342 340 340 338 338 336 336 337 338 341 341 340 339 339 343 347 347 346 346 347 350 351 351 351 351 351 351 353 353 353 353 353 353 354 354 354 353 354 350 354
329 334 341 343 340 340 337 337 336 334 334 339 339 338 340 338 339 342 344 346 346 344 344 345 346 347 348 347 347 348 349 350 350 350 350 350 351 352 352 352 353 349 352
330 334 339 343 342 339 335 338 337 336 338 338 339 338 338 337 337 342 342 343 344 344 342 342 342 343 344 345 344 345 344 344 345 350 348 342 344 350 351 350 350 350 349
334 338 337 342 339 336 340 339 336 334 336 337 337 337 337 335 336 339 340 340 341 342 340 339 339 340 340 342 341 340 340 340 344 345 337 339 342 348 348 348 348 346 345
337 335 336 340 338 340 340 336 336 337 336 335 337 337 337 336 335 336 336 336 338 338 338 337 336 337 338 339 338 338 338 340 345 338 334 333 337 345 346 344 343 343 344
332 332 338 339 336 339 337 334 332 332 335 336 335 335 335 334 333 333 334 334 334 334 335 334 334 335 337 336 336 336 338 342 339 330 332 337 337 343 342 342 341 341 340
328 327 329 337 336 338 336 334 336 333 332 332 330 329 330 330 330 331 330 332 331 332 331 331 332 331 333 334 335 335 336 339 329 329 329 329 334 340 341 339 338 337 337
329 328 331 339 336 337 333 333 333 331 335 331 329 328 328 328 328 329 329 328 328 329 328 328 328 328 330 331 331 332 332 333 330 328 329 330 337 336 338 337 337 335 336
330 330 333 333 336 338 335 332 335 336 332 328 327 326 325 325 326 326 326 326 325 325 324 325 325 325 326 327 326 326 327 331 323 325 327 327 336 336 336 335 334 335 337
325 332 333 333 332 330 332 335 332 332 327 327 325 323 322 323 324 324 323 321 321 321 320 319 320 320 321 323 320 318 321 323 320 325 325 325 333 334 335 333 334 334 333
325 326 330 327 327 328 330 333 333 330 327 326 324 323 321 317 318 318 322 323 319 318 317 317 317 320 319 320 319 315 319 309 314 321 322 332 332 332 331 332 333 333 333
321 323 326 324 325 327 329 329 327 325 322 321 321 318 316 311 312 315 320 320 320 318 317 318 320 318 317 312 312 318 308 307 308 316 321 329 330 330 330 330 330 331 331
320 321 324 324 325 327 325 325 323 323 321 321 319 316 313 311 308 307 311 311 312 317 314 315 314 312 309 307 309 307 307 305 306 308 324 327 326 328 329 329 329 330 330
318 321 322 323 323 324 325 323 322 321 321 320 319 317 313 310 308 307 308 309 308 309 307 308 308 307 307 307 306 306 306 306 306 308 320 327 325 327 328 327 328 329 329
315 320 321 323 321 322 322 322 322 320 320 320 320 318 314 310 308 309 309 309 308 307 307 307 308 308 307 306 306 306 305 306 306 307 310 326 325 325 328 329 328 328 328
314 318 321 322 323 321 320 321 320 319 320 319 319 318 316 311 308 309 310 310 308 308 308 307 306 307 307 307 307 307 306 306 306 307 310 315 325 325 325 329 331 330 330
315 317 318 320 323 322 321 321 320 320 320 318 318 317 315 313 308 308 310 309 309 309 308 308 307 306 306 308 306 307 307 307 308 307 308 310 316 327 327 326 328 331 331
315 316 318 322 322 321 321 321 321 320 319 318 317 316 317 315 312 310 311 311 312 311 309 308 307 307 307 306 305 306 307 308 308 308 309 309 311 313 326 329 327 329 331
309 316 317 319 319 321 321 321 321 320 320 319 318 317 318 317 315 312 312 313 312 311 309 309 308 307 305 306 307 306 307 307 309 312 309 310 310 311 314 326 330 330 330
310 310 319 319 319 320 321 320 320 319 319 319 319 318 319 318 317 314 313 313 312 310 309 308 307 308 307 307 310 309 307 307 309 310 310 311 311 312 312 317 320 322 329
310 310 319 319 319 319 318 317 317 316 317 318 319 320 319 318 318 315 314 314 313 310 309 308 308 307 307 309 306 306 307 308 306 309 311 311 310 312 312 312 316 314 318
312 315 317 320 320 320 320 320 319 318 319 319 320 320 320 319 319 317 315 314 313 311 310 309 307 306 307 308 304 303 301 306 307 308 309 311 310 310 312 312 313 313 312
312 313 315 318 320 321 321 320 320 319 319 318 318 318 320 320 320 319 317 314 313 312 310 310 309 307 305 308 306 304 301 301 303 309 307 309 308 308 309 310 310 311 311
306 311 315 316 316 319 320 319 317 316 315 318 318 319 320 320 319 320 319 316 314 313 311 311 312 309 308 306 308 309 305 304 300 300 307 308 309 309 308 309 309 309 309
304 304 306 307 309 314 316 316 315 315 316 317 317 316 317 318 319 319 318 316 314 313 312 311 310 309 309 307 307 307 306 304 304 300 299 303 307 308 309 309 309 309 308
301 302 303 303 304 306 307 309 312 313 313 313 313 314 316 317 318 318 318 316 315 314 313 312 312 311 310 309 308 308 307 305 304 302 300 301 302 306 309 309 308 309 309
Wind_Speed
8 7 10 8 10 13 13 12 12 12 12 13 14 17 15 15 15 15 18 18 20 20 21 20 22 22 22 21 21 21 22 23 24 24 24 23 22 23 21 20 18 15 21
12 9 9 12 12 15 13 13 11 12 12 13 14 15 16 15 15 14 16 18 19 19 19 19 19 20 19 19 18 18 18 19 20 22 19 18 19 21 21 19 18 17 20
12 10 9 14 13 11 11 13 14 11 12 12 14 15 15 16 14 15 16 17 18 20 18 17 18 19 18 17 17 16 16 14 13 18 17 10 12 19 19 18 18 18 17
13 10 9 16 11 12 13 14 13 11 10 13 14 13 15 14 14 15 16 17 17 19 17 17 17 17 16 16 15 14 12 12 13 8 8 9 10 15 17 16 16 17 14
12 11 10 15 12 12 13 13 12 11 13 12 14 14 13 15 14 13 15 14 16 17 16 16 16 16 15 14 12 12 12 14 17 14 9 7 6 13 16 15 14 14 14
12 12 11 11 11 12 12 12 10 8 11 12 12 13 14 15 13 12 15 13 14 14 14 15 15 14 14 13 11 11 14 13 12 8 7 12 8 13 14 14 14 14 14
10 11 8 12 11 12 10 11 11 10 10 11 10 8 9 11 11 11 11 12 13 13 12 14 12 11 12 12 10 10 14 14 8 8 7 6 8 13 16 12 12 13 15
11 10 8 11 13 12 8 9 9 8 10 10 9 9 10 9 10 11 11 12 11 11 10 11 11 11 10 10 10 10 12 12 8 8 6 5 13 12 14 12 13 14 15
14 11 9 8 10 11 10 9 8 10 9 8 8 7 8 8 8 8 9 9 9 9 8 9 9 9 10 10 9 9 9 11 6 5 6 4 12 12 13 12 12 13 13
8 12 11 9 7 7 7 11 8 6 5 6 7 5 5 6 5 6 8 7 7 7 7 7 7 7 7 7 6 6 8 10 2 8 5 4 10 11 11 10 11 11 11
7 7 11 8 5 7 7 8 8 7 5 6 5 4 4 4 5 7 7 6 5 5 4 4 4 3 1 3 2 3 5 3 3 5 4 8 9 9 8 8 9 9 10
8 6 10 9 7 7 6 5 5 5 5 6 6 7 5 3 5 5 6 4 1 1 1 1 1 4 5 3 3 5 2 2 2 5 4 8 7 7 8 7 7 8 9
7 4 8 9 10 7 6 4 2 3 2 2 3 2 4 3 4 3 3 2 2 5 3 4 5 3 4 1 4 3 1 2 2 3 7 9 6 7 7 7 7 7 7
8 7 4 7 7 8 6 5 5 4 4 3 4 4 2 1 2 1 1 3 1 1 2 2 1 1 3 3 4 3 3 2 1 3 6 11 8 7 8 8 8 7 7
9 8 6 6 5 6 7 4 5 5 3 3 5 4 1 1 2 1 2 2 2 1 2 2 2 2 4 3 2 3 3 4 4 3 3 11 10 9 8 10 9 8 8
9 9 9 7 5 3 4 5 2 3 5 2 4 4 6 3 3 3 2 2 1 2 1 1 2 2 4 3 4 3 2 3 2 4 4 5 12 11 10 10 10 10 9
7 10 9 9 8 4 3 4 3 1 2 2 2 3 3 4 3 2 1 2 2 1 2 2 3 2 3 4 4 5 3 4 3 4 5 5 6 12 12 11 11 11 10
2 10 9 8 9 6 4 3 4 2 2 1 2 3 4 2 2 3 2 2 2 3 1 2 2 2 3 3 3 4 3 3 4 4 4 5 5 5 10 12 12 12 12
9 4 9 9 8 9 5 4 5 4 4 4 3 3 4 4 3 3 2 3 1 2 1 2 2 1 2 4 4 4 4 3 4 3 5 6 6 5 5 12 14 12 13
9 8 9 8 8 7 6 4 4 3 3 3 3 3 4 4 4 2 2 3 1 2 2 2 2 2 2 3 4 5 5 5 4 4 4 4 6 6 5 5 5 6 13
4 8 5 9 8 4 3 3 2 3 3 2 3 3 4 3 5 5 3 3 3 3 3 4 2 2 3 3 1 5 5 7 6 5 5 4 4 6 6 5 4 4 6
13 6 5 5 7 4 4 3 3 2 2 4 4 4 5 5 5 5 5 4 4 2 4 3 2 1 3 2 2 2 4 5 3 5 4 5 6 4 6 7 7 7 6
15 13 10 8 5 4 4 3 4 4 3 3 2 1 3 5 5 5 5 4 4 3 4 3 3 4 2 4 3 3 3 1 3 2 3 4 5 3 4 6 7 7 7
13 14 15 14 13 11 6 4 3 2 3 3 3 1 3 5 4 5 5 5 5 3 4 4 4 4 3 4 3 3 3 2 1 4 3 3 4 5 6 4 5 6 7
9 9 11 13 14 13 11 8 5 6 4 4 4 5 4 4 2 3 4 6 5 4 5 5 5 4 4 3 3 2 2 3 2 2 4 4 2 4 5 5 6 5 6
9 8 8 9 9 10 9 9 8 8 7 7 7 5 5 4 3 2 3 3 4 3 4 4 5 5 5 4 3 4 3 3 3 3 4 5 5 6 5 5 6 5 6
Wind_Direction
117 129 119 117 113 107 94 90 79 75 70 58 60 64 60 60 60 53 44 56 64 62 61 59 61 60 61 64 64 65 69 74 72 68 64 64 71 74 74 73 73 77 78
125 134 126 115 112 107 100 92 83 80 73 58 58 63 61 63 61 61 53 57 64 70 64 64 64 64 63 64 63 68 70 68 78 74 64 61 62 65 66 66 68 70 71
130 121 128 117 107 107 89 103 89 73 78 70 62 66 63 62 65 65 67 60 61 68 66 65 64 64 63 63 59 55 57 52 53 77 71 60 64 69 68 67 72 72 70
111 119 126 113 104 95 95 99 90 82 77 65 66 64 58 65 66 58 70 64 63 67 66 65 64 65 65 65 63 62 43 24 27 92 78 74 69 75 75 73 74 72 71
120 123 127 119 115 97 111 94 92 86 85 78 68 68 64 68 62 60 63 63 64 66 64 67 66 65 65 67 64 56 32 12 79 75 70 73 71 75 77 74 72 75 73
115 114 110 130 119 113 105 101 100 97 80 80 80 66 65 69 67 59 61 66 65 66 66 66 67 67 70 69 63 51 31 24 67 68 79 76 79 86 87 79 82 83 84
123 117 133 135 144 110 108 94 93 87 89 82 73 76 68 71 70 70 72 64 65 64 65 64 67 64 61 70 60 43 31 41 68 69 58 75 83 85 84 94 93 93 89
137 124 127 141 129 138 122 113 108 92 94 86 84 75 65 65 65 63 61 63 61 61 64 64 63 66 65 65 49 34 26 16 89 86 69 63 82 92 88 92 86 92 89
124 117 127 123 128 129 120 125 108 113 98 70 72 75 75 70 70 71 68 63 61 65 65 59 60 60 58 55 39 22 13 5 92 117 96 68 81 83 95 86 93 88 87
118 129 137 133 150 127 124 131 123 110 89 101 88 88 111 116 98 87 80 63 61 59 59 65 64 60 61 63 42 7 356 342 20 93 83 97 108 101 91 97 91 93 95
103 177 148 137 156 125 130 127 132 122 104 119 138 193 206 213 172 102 79 52 56 60 59 64 61 66 83 119 114 302 316 296 45 90 90 112 107 103 109 106 99 101 100
160 193 134 136 142 142 131 142 152 138 186 180 173 194 211 131 81 106 128 150 131 117 148 128 213 242 229 213 197 236 251 229 68 104 111 116 122 126 126 118 112 111 110
170 161 143 158 158 167 136 155 151 180 220 184 117 59 45 60 148 177 186 183 201 220 221 217 234 247 242 108 189 221 214 156 161 116 139 128 144 149 144 138 137 131 123
163 163 168 147 150 173 147 167 180 186 175 219 147 106 49 258 331 118 87 112 160 198 342 270 327 317 279 226 245 232 197 199 198 132 155 154 164 176 165 165 162 155 147
159 160 173 148 160 178 148 193 154 177 163 185 132 144 177 142 340 258 226 162 142 97 269 324 292 316 295 301 270 209 263 194 199 137 151 165 178 194 198 183 182 175 168
161 159 165 161 176 204 165 155 171 142 159 187 137 169 177 189 191 237 241 135 277 170 316 322 330 334 311 310 299 318 287 312 161 157 156 176 182 200 206 207 197 192 188
171 155 162 166 164 191 187 150 104 80 91 151 155 184 197 195 203 232 293 165 220 90 61 302 293 291 321 299 283 280 257 241 232 206 173 172 189 198 212 212 211 203 203
254 151 157 159 154 177 169 149 136 204 126 289 202 189 193 199 181 321 332 313 188 92 8 334 314 331 302 281 281 287 265 225 243 234 196 177 170 197 209 213 214 214 209
312 200 149 147 164 161 191 166 163 200 159 206 237 180 192 181 195 187 269 260 227 137 208 242 305 210 291 313 282 262 276 269 237 239 226 193 191 182 190 215 207 217 219
291 295 142 143 161 162 163 178 163 172 186 204 204 201 191 174 188 204 265 282 326 127 262 282 240 299 225 276 311 308 280 262 239 222 240 219 200 196 206 187 201 208 218
226 270 136 136 160 148 137 162 164 184 191 197 204 221 205 197 181 182 221 263 224 184 241 238 218 254 302 262 345 304 268 234 231 214 210 225 230 198 194 208 191 204 211
8 40 31 123 143 149 148 174 161 175 203 185 189 193 209 205 206 185 195 223 245 202 232 250 245 279 291 254 187 284 319 344 319 226 203 205 227 210 198 207 209 209 205
16 10 15 35 91 93 77 61 41 38 19 11 334 234 225 213 213 208 218 213 228 206 208 233 213 195 228 310 225 170 338 273 322 331 248 215 215 231 233 215 211 211 214
17 20 24 32 27 25 49 23 118 176 222 229 209 219 234 220 222 219 215 223 242 240 212 217 224 201 170 240 321 239 221 185 322 335 320 253 221 232 240 243 223 227 216
26 25 34 36 34 25 27 25 25 20 9 356 22 16 346 321 240 257 231 226 231 233 239 219 228 218 200 199 216 270 269 257 242 192 282 309 339 252 233 224 219 227 231
23 32 34 48 42 33 32 27 35 35 17 24 9 2 350 342 333 309 264 276 284 280 247 238 237 236 229 219 224 240 222 215 226 222 248 268 254 271 232 222 219 217 221